• în România
  • Lista ţărilor
  • Pe 7 zile
  • Temperatura apei
  • Hartă satelitară
  • Meteo pe hartă
  • Widget-uri
  • user-avatar
    Intrare

    Meteo pe oră la Berat

    Astăzi, 21 Octombrie, Duminică

    Timp Temperatura Precipitaţii Vânt Presiune Umiditate
    00:00 +16°C° 0 mm 2 m/s 746 mmHg 73%
    01:00 +16°C° 0 mm 2 m/s 746 mmHg 72%
    02:00 +16°C° 0 mm 2 m/s 746 mmHg 72%
    03:00 +15°C° 0 mm 2 m/s 746 mmHg 72%
    04:00 +15°C° 0 mm 2 m/s 745 mmHg 72%
    05:00 +15°C° 0 mm 2 m/s 745 mmHg 71%
    06:00 +16°C° 0 mm 2 m/s 745 mmHg 69%
    07:00 +16°C° 0 mm 2 m/s 746 mmHg 68%
    08:00 +18°C° 0 mm 2 m/s 745 mmHg 62%
    09:00 +19°C° 0 mm 2 m/s 745 mmHg 56%
    10:00 +22°C° 0 mm 1 m/s 745 mmHg 50%
    11:00 +23°C° 0.1 mm 2 m/s 745 mmHg 49%
    12:00 +23°C° 0.1 mm 2 m/s 745 mmHg 48%
    13:00 +23°C° 0.1 mm 2 m/s 745 mmHg 47%
    14:00 +23°C° 0.2 mm 2 m/s 744 mmHg 49%
    15:00 +21°C° 0.2 mm 2 m/s 744 mmHg 52%
    16:00 +21°C° 0.2 mm 2 m/s 744 mmHg 54%
    17:00 +20°C° 0.1 mm 2 m/s 744 mmHg 58%
    18:00 +19°C° 0.1 mm 2 m/s 744 mmHg 63%
    19:00 +19°C° 0.1 mm 1 m/s 745 mmHg 67%
    20:00 +18°C° 0.1 mm 1 m/s 745 mmHg 69%
    21:00 +18°C° 0.1 mm 1 m/s 745 mmHg 71%
    22:00 +17°C° 0.1 mm 2 m/s 745 mmHg 73%
    23:00 +16°C° 0.1 mm 2 m/s 745 mmHg 75%

    Mâine, 22 Octombrie, Luni

    Timp Temperatura Precipitaţii Vânt Presiune Umiditate
    00:00 +16°C° 0.1 mm 2 m/s 745 mmHg 76%
    01:00 +15°C° 0.1 mm 2 m/s 745 mmHg 77%
    02:00 +15°C° 0.2 mm 2 m/s 745 mmHg 78%
    03:00 +14°C° 0.2 mm 3 m/s 745 mmHg 79%
    04:00 +13°C° 0.2 mm 3 m/s 745 mmHg 80%
    05:00 +14°C° 0.1 mm 3 m/s 745 mmHg 79%
    06:00 +14°C° 0.1 mm 3 m/s 745 mmHg 78%
    07:00 +14°C° 0.1 mm 3 m/s 745 mmHg 76%
    08:00 +17°C° 0 mm 3 m/s 745 mmHg 69%
    09:00 +18°C° 0 mm 4 m/s 745 mmHg 62%
    10:00 +20°C° 0 mm 4 m/s 745 mmHg 55%
    11:00 +20°C° 0.1 mm 4 m/s 745 mmHg 53%
    12:00 +21°C° 0.1 mm 4 m/s 744 mmHg 52%
    13:00 +21°C° 0.1 mm 4 m/s 744 mmHg 51%
    14:00 +20°C° 0.5 mm 4 m/s 744 mmHg 56%
    15:00 +19°C° 0.5 mm 3 m/s 744 mmHg 62%
    16:00 +18°C° 0.5 mm 3 m/s 744 mmHg 67%
    17:00 +17°C° 0.8 mm 3 m/s 744 mmHg 72%
    18:00 +17°C° 0.8 mm 3 m/s 744 mmHg 77%
    19:00 +16°C° 0.8 mm 3 m/s 744 mmHg 82%
    20:00 +16°C° 0.4 mm 3 m/s 744 mmHg 81%
    21:00 +16°C° 0.4 mm 3 m/s 744 mmHg 81%
    22:00 +16°C° 0.4 mm 3 m/s 744 mmHg 81%
    23:00 +16°C° 0.1 mm 3 m/s 744 mmHg 81%

    Poimâine, 23 Octombrie, Marţi

    Timp Temperatura Precipitaţii Vânt Presiune Umiditate
    00:00 +14°C° 0.1 mm 3 m/s 744 mmHg 80%
    01:00 +14°C° 0.1 mm 3 m/s 744 mmHg 80%
    02:00 +14°C° 0.1 mm 3 m/s 744 mmHg 80%
    03:00 +14°C° 0.1 mm 3 m/s 743 mmHg 80%
    04:00 +14°C° 0.1 mm 3 m/s 743 mmHg 80%
    05:00 +14°C° 0.3 mm 3 m/s 743 mmHg 79%
    06:00 +14°C° 0.3 mm 3 m/s 743 mmHg 78%
    07:00 +14°C° 0.3 mm 3 m/s 743 mmHg 77%
    08:00 +16°C° 0.3 mm 3 m/s 744 mmHg 71%
    09:00 +17°C° 0.3 mm 3 m/s 744 mmHg 66%
    10:00 +18°C° 0.3 mm 4 m/s 744 mmHg 61%
    11:00 +19°C° 0.1 mm 3 m/s 744 mmHg 58%
    12:00 +20°C° 0.1 mm 3 m/s 744 mmHg 55%
    13:00 +20°C° 0.1 mm 3 m/s 744 mmHg 52%
    14:00 +20°C° 0 mm 3 m/s 743 mmHg 53%
    15:00 +20°C° 0 mm 3 m/s 743 mmHg 54%
    16:00 +19°C° 0 mm 3 m/s 743 mmHg 55%
    17:00 +18°C° 0 mm 3 m/s 743 mmHg 59%
    18:00 +17°C° 0 mm 3 m/s 743 mmHg 62%
    19:00 +16°C° 0 mm 3 m/s 744 mmHg 66%
    20:00 +14°C° 0 mm 3 m/s 744 mmHg 67%
    21:00 +15°C° 0 mm 2 m/s 744 mmHg 69%
    22:00 +15°C° 0 mm 2 m/s 744 mmHg 70%
    23:00 +14°C° 0 mm 2 m/s 743 mmHg 71%

    24 Octombrie, Miercuri

    Timp Temperatura Precipitaţii Vânt Presiune Umiditate
    00:00 +14°C° 0 mm 2 m/s 743 mmHg 72%
    01:00 +14°C° 0 mm 2 m/s 743 mmHg 73%
    02:00 +13°C° 0 mm 2 m/s 743 mmHg 73%
    03:00 +13°C° 0 mm 2 m/s 742 mmHg 74%
    04:00 +13°C° 0 mm 2 m/s 742 mmHg 74%
    05:00 +13°C° 0 mm 2 m/s 742 mmHg 73%
    06:00 +13°C° 0 mm 2 m/s 742 mmHg 72%
    07:00 +14°C° 0 mm 2 m/s 742 mmHg 71%
    08:00 +16°C° 0 mm 2 m/s 742 mmHg 63%
    09:00 +18°C° 0 mm 3 m/s 741 mmHg 55%
    10:00 +20°C° 0 mm 3 m/s 741 mmHg 47%
    11:00 +21°C° 0 mm 3 m/s 741 mmHg 44%
    12:00 +21°C° 0 mm 4 m/s 740 mmHg 42%
    13:00 +22°C° 0 mm 4 m/s 740 mmHg 40%
    14:00 +21°C° 0 mm 4 m/s 739 mmHg 43%
    15:00 +20°C° 0 mm 4 m/s 739 mmHg 46%
    16:00 +20°C° 0 mm 4 m/s 739 mmHg 49%
    17:00 +18°C° 0 mm 4 m/s 739 mmHg 55%
    18:00 +16°C° 0 mm 3 m/s 739 mmHg 60%
    19:00 +14°C° 0 mm 3 m/s 740 mmHg 66%
    20:00 +14°C° 0 mm 3 m/s 740 mmHg 70%
    21:00 +13°C° 0 mm 3 m/s 740 mmHg 74%
    22:00 +13°C° 0 mm 3 m/s 741 mmHg 78%
    23:00 +13°C° 0.2 mm 3 m/s 741 mmHg 80%

    25 Octombrie, Joi

    Timp Temperatura Precipitaţii Vânt Presiune Umiditate
    00:00 +13°C° 0.2 mm 3 m/s 741 mmHg 83%
    01:00 +12°C° 0.2 mm 3 m/s 741 mmHg 86%
    02:00 +12°C° 0 mm 3 m/s 741 mmHg 86%
    03:00 +12°C° 0 mm 3 m/s 742 mmHg 86%
    04:00 +12°C° 0 mm 4 m/s 742 mmHg 86%
    05:00 +11°C° 0 mm 4 m/s 742 mmHg 82%
    06:00 +11°C° 0 mm 4 m/s 743 mmHg 77%
    07:00 +11°C° 0 mm 4 m/s 744 mmHg 72%
    08:00 +13°C° 0 mm 5 m/s 744 mmHg 60%
    09:00 +14°C° 0 mm 5 m/s 744 mmHg 49%
    10:00 +15°C° 0 mm 5 m/s 745 mmHg 37%
    11:00 +16°C° 0 mm 5 m/s 745 mmHg 34%
    12:00 +17°C° 0 mm 5 m/s 744 mmHg 31%
    13:00 +17°C° 0 mm 5 m/s 744 mmHg 28%
    14:00 +17°C° 0 mm 5 m/s 744 mmHg 30%
    15:00 +16°C° 0 mm 5 m/s 744 mmHg 32%
    16:00 +15°C° 0 mm 4 m/s 745 mmHg 34%
    17:00 +14°C° 0 mm 4 m/s 745 mmHg 38%
    18:00 +13°C° 0 mm 3 m/s 746 mmHg 41%
    19:00 +12°C° 0 mm 2 m/s 746 mmHg 44%
    20:00 +12°C° 0 mm 2 m/s 746 mmHg 44%
    21:00 +12°C° 0 mm 2 m/s 747 mmHg 44%
    22:00 +12°C° 0 mm 2 m/s 747 mmHg 44%
    23:00 +12°C° 0 mm 2 m/s 747 mmHg 45%

    26 Octombrie, Vineri

    Timp Temperatura Precipitaţii Vânt Presiune Umiditate
    00:00 +12°C° 0 mm 2 m/s 747 mmHg 45%
    01:00 +12°C° 0 mm 1 m/s 747 mmHg 46%
    02:00 +12°C° 0 mm 1 m/s 747 mmHg 47%
    03:00 +12°C° 0 mm 1 m/s 747 mmHg 48%
    04:00 +11°C° 0 mm 1 m/s 747 mmHg 49%
    05:00 +12°C° 0 mm 1 m/s 747 mmHg 50%
    06:00 +13°C° 0 mm 1 m/s 747 mmHg 50%
    07:00 +13°C° 0 mm 1 m/s 747 mmHg 50%
    08:00 +15°C° 0 mm 1 m/s 747 mmHg 46%
    09:00 +18°C° 0 mm 2 m/s 747 mmHg 42%
    10:00 +20°C° 0 mm 2 m/s 747 mmHg 38%
    11:00 +21°C° 0 mm 2 m/s 747 mmHg 38%
    12:00 +23°C° 0 mm 2 m/s 747 mmHg 38%
    13:00 +22°C° 0 mm 3 m/s 746 mmHg 37%
    14:00 +22°C° 0 mm 3 m/s 746 mmHg 41%
    15:00 +21°C° 0 mm 3 m/s 746 mmHg 44%
    16:00 +20°C° 0 mm 2 m/s 746 mmHg 47%
    17:00 +19°C° 0 mm 2 m/s 746 mmHg 51%
    18:00 +17°C° 0 mm 2 m/s 746 mmHg 55%
    19:00 +16°C° 0 mm 2 m/s 747 mmHg 59%
    20:00 +14°C° 0 mm 3 m/s 747 mmHg 62%
    21:00 +14°C° 0 mm 3 m/s 747 mmHg 64%
    22:00 +13°C° 0 mm 3 m/s 747 mmHg 66%
    23:00 +13°C° 0 mm 3 m/s 747 mmHg 68%
    Arată mai mult